This is the latest recevied weather packets stored in our database for station/object NR5ON-13. If no packets are shown the sender has not sent any weather packets the latest 1 day(s).
| Time | Temp. | Humidity | Pressure | Rain* | Wind** | Luminosity | Snow |
|---|---|---|---|---|---|---|---|
| 1778003313 | 12.78° C | 40% | 1013.4 hPa | 0 mm | 1.34 m/s, 134° | - | - |
| 1778003018 | 12.78° C | 40% | 1013.6 hPa | 0 mm | 0.89 m/s, 172° | - | - |
| 1778002707 | 12.78° C | 40% | 1013.6 hPa | 0 mm | 0.45 m/s, 171° | - | - |
| 1778002412 | 13.33° C | 39% | 1013.7 hPa | 0 mm | 1.34 m/s, 198° | - | - |
| 1778002119 | 12.78° C | 41% | 1013.6 hPa | 0 mm | 0.45 m/s, 82° | - | - |
| 1778001807 | 12.78° C | 40% | 1013.5 hPa | 0 mm | 0.89 m/s, 81° | - | - |
| 1778001512 | 12.78° C | 40% | 1013.6 hPa | 0 mm | 0.89 m/s, 118° | - | - |
| 1778001217 | 12.78° C | 41% | 1013.7 hPa | 0 mm | 1.34 m/s, 150° | - | - |
| 1778000922 | 12.78° C | 40% | 1013.7 hPa | 0 mm | 1.79 m/s, 108° | - | - |
| 1778000607 | 12.22° C | 41% | 1013.7 hPa | 0 mm | 1.34 m/s, 92° | - | - |
| 1778000312 | 12.22° C | 42% | 1013.8 hPa | 0 mm | 0.45 m/s, 169° | - | - |
| 1778000017 | 12.22° C | 41% | 1013.9 hPa | 0 mm | 0.89 m/s, 149° | - | - |
| 1777999706 | 12.22° C | 43% | 1014 hPa | 0 mm | 0.45 m/s, 182° | - | - |
| 1777999414 | 12.22° C | 42% | 1014.1 hPa | 0 mm | 1.79 m/s, 199° | - | - |
| 1777999119 | 11.67° C | 44% | 1014.1 hPa | 0 mm | 0.89 m/s, 236° | - | - |
| 1777998804 | 11.67° C | 43% | 1014.2 hPa | 0 mm | 1.34 m/s, 223° | - | - |
| 1777998509 | 11.67° C | 44% | 1014.2 hPa | 0 mm | 1.34 m/s, 244° | - | - |
| 1777998218 | 11.67° C | 44% | 1014.1 hPa | 0 mm | 1.34 m/s, 232° | - | - |
| 1777997923 | 11.67° C | 45% | 1014.2 hPa | 0 mm | 0.45 m/s, 198° | - | - |
| 1777997609 | 11.11° C | 46% | 1014.2 hPa | 0 mm | 0.45 m/s, 214° | - | - |
| 1777997313 | 11.11° C | 45% | 1014.4 hPa | 0 mm | 1.34 m/s, 208° | - | - |
| 1777997019 | 11.11° C | 45% | 1014.3 hPa | 0 mm | 0.89 m/s, 248° | - | - |
| 1777996708 | 11.67° C | 45% | 1014.4 hPa | 0 mm | 0.45 m/s, 187° | - | - |
| 1777996413 | 11.11° C | 46% | 1014.4 hPa | 0 mm | 1.34 m/s, 240° | - | - |
| 1777996121 | 11.11° C | 47% | 1014.4 hPa | 0 mm | 0.89 m/s, 221° | - | - |
* Rain latest hour (hover to see other rain measurements)
** Current wind speed in m/s (hover to see current wind gust speed)